1 Anzeige mit Außen Messungen

Zurück zum Überblick

Zeitpunkt Temperatur Innen Luftfeuchte Innen Luftqualität Temperatur Außen
28.05.2020 20:33:14 22,5 C 29,0% 500 ppm ---
28.05.2020 20:27:17 22,5 C 29,0% 500 ppm ---
28.05.2020 20:21:17 22,5 C 28,0% 450 ppm ---
28.05.2020 20:15:09 22,5 C 27,0% 500 ppm ---
28.05.2020 20:02:30 22,5 C 26,0% 450 ppm ---
28.05.2020 19:56:26 22,5 C 27,0% 450 ppm ---
28.05.2020 19:50:27 22,5 C 27,0% 450 ppm ---
28.05.2020 19:44:27 22,5 C 27,0% 450 ppm ---
28.05.2020 19:38:28 22,5 C 26,0% 450 ppm ---
28.05.2020 19:32:28 22,5 C 28,0% 450 ppm ---
28.05.2020 19:26:27 22,5 C 28,0% 450 ppm ---
28.05.2020 19:20:28 22,5 C 28,0% 450 ppm ---
28.05.2020 19:14:30 22,5 C 29,0% 450 ppm ---
28.05.2020 19:08:26 22,5 C 29,0% 450 ppm ---
28.05.2020 19:01:39 22,5 C 29,0% 450 ppm ---
28.05.2020 18:55:45 22,5 C 30,0% 450 ppm 18,0 C
28.05.2020 18:49:33 22,5 C 30,0% 450 ppm 17,8 C
28.05.2020 18:43:32 22,5 C 30,0% 450 ppm 18,2 C
28.05.2020 18:37:32 22,5 C 29,0% 450 ppm 18,5 C
28.05.2020 18:31:36 22,5 C 30,0% 450 ppm 18,8 C
28.05.2020 18:25:31 22,5 C 30,0% 450 ppm 18,3 C
28.05.2020 18:19:30 22,5 C 30,0% 450 ppm 18,3 C
28.05.2020 18:13:31 22,5 C 28,0% 450 ppm 19,0 C
28.05.2020 18:07:31 22,5 C 29,0% 450 ppm 19,5 C
28.05.2020 18:01:32 22,5 C 29,0% 450 ppm 20,1 C
28.05.2020 17:55:30 22,5 C 30,0% 450 ppm 20,4 C
28.05.2020 17:49:34 22,5 C 31,0% 450 ppm 20,7 C
28.05.2020 17:43:30 22,5 C 31,0% 450 ppm 20,9 C
28.05.2020 17:37:31 22,5 C 30,0% 450 ppm 21,4 C
28.05.2020 17:31:33 22,5 C 31,0% 450 ppm 21,4 C
28.05.2020 17:25:30 22,5 C 31,0% 450 ppm 21,3 C
28.05.2020 17:19:31 22,5 C 31,0% 450 ppm 21,9 C
28.05.2020 17:13:31 22,5 C 31,0% 450 ppm 22,4 C
28.05.2020 17:07:31 22,5 C 31,0% 450 ppm 22,7 C
28.05.2020 17:01:29 22,5 C 32,0% 450 ppm 22,5 C
28.05.2020 16:55:32 22,5 C 32,0% 450 ppm 22,7 C
28.05.2020 16:49:29 22,5 C 33,0% 450 ppm 22,0 C
28.05.2020 16:43:21 22,5 C 34,0% 450 ppm 22,3 C
28.05.2020 16:37:29 22,5 C 35,0% 500 ppm 22,9 C
28.05.2020 16:31:29 22,5 C 35,0% 500 ppm 23,5 C
28.05.2020 16:25:27 22,5 C 36,0% 450 ppm 23,7 C
28.05.2020 16:19:29 22,5 C 36,0% 450 ppm 22,5 C
28.05.2020 16:13:29 22,5 C 38,0% 450 ppm 23,7 C
28.05.2020 16:07:32 22,5 C 38,0% 450 ppm 22,2 C
28.05.2020 16:01:30 22,5 C 38,0% 450 ppm 22,1 C
28.05.2020 15:55:29 22,5 C 38,0% 450 ppm 22,2 C
28.05.2020 15:49:32 22,5 C 38,0% 450 ppm 23,3 C
28.05.2020 15:43:27 22,5 C 39,0% 450 ppm 24,6 C
28.05.2020 15:37:28 22,5 C 39,0% 450 ppm 24,2 C
28.05.2020 15:31:28 22,5 C 39,0% 450 ppm 25,5 C
28.05.2020 15:25:32 22,5 C 39,0% 450 ppm 26,3 C
28.05.2020 15:19:29 22,5 C 39,0% 450 ppm 26,4 C
28.05.2020 15:13:30 22,5 C 39,0% 450 ppm 27,7 C
28.05.2020 15:07:30 22,5 C 39,0% 450 ppm 27,2 C
28.05.2020 15:01:31 22,5 C 39,0% 450 ppm 25,2 C
28.05.2020 14:55:29 22,5 C 39,0% 450 ppm 23,7 C
28.05.2020 14:49:30 22,5 C 40,0% 450 ppm 26,2 C
28.05.2020 14:43:25 22,5 C 40,0% 450 ppm 26,8 C
28.05.2020 14:37:23 22,5 C 41,0% 450 ppm 26,0 C
28.05.2020 14:31:26 22,5 C 40,0% 450 ppm 23,8 C
28.05.2020 14:25:18 22,5 C 40,0% 450 ppm 24,0 C
28.05.2020 14:13:24 22,5 C 40,0% 450 ppm 23,8 C
28.05.2020 14:07:29 22,5 C 41,0% 450 ppm 24,8 C
28.05.2020 14:01:25 22,0 C 41,0% 450 ppm 24,4 C
28.05.2020 13:55:24 22,0 C 41,0% 450 ppm 21,5 C
28.05.2020 13:49:23 22,0 C 40,0% 450 ppm 22,1 C
28.05.2020 13:43:23 22,0 C 40,0% 450 ppm 23,2 C
28.05.2020 13:37:28 22,0 C 40,0% 450 ppm 21,6 C
28.05.2020 13:31:24 22,0 C 40,0% 450 ppm 22,8 C
28.05.2020 13:25:28 22,0 C 40,0% 450 ppm 23,1 C
28.05.2020 13:19:23 22,0 C 40,0% 450 ppm 25,3 C
28.05.2020 13:13:26 22,0 C 40,0% 450 ppm 25,0 C
28.05.2020 13:07:23 22,0 C 40,0% 450 ppm 23,4 C
28.05.2020 13:01:23 22,0 C 40,0% 450 ppm 22,7 C
28.05.2020 12:55:24 22,0 C 40,0% 450 ppm 23,7 C
28.05.2020 12:49:23 22,0 C 40,0% 450 ppm 23,5 C
28.05.2020 12:43:25 22,0 C 40,0% 450 ppm 23,2 C
28.05.2020 12:37:23 22,0 C 40,0% 450 ppm 21,4 C
28.05.2020 12:31:24 22,0 C 40,0% 450 ppm 23,2 C
28.05.2020 12:25:22 22,0 C 41,0% 450 ppm 23,6 C
28.05.2020 12:19:25 22,0 C 41,0% 450 ppm 23,0 C
28.05.2020 12:13:23 22,0 C 41,0% 450 ppm 21,5 C
28.05.2020 12:07:22 22,0 C 41,0% 450 ppm 20,8 C
28.05.2020 12:01:23 22,0 C 41,0% 450 ppm 22,0 C
28.05.2020 11:55:26 22,0 C 41,0% 450 ppm 22,0 C
28.05.2020 11:49:24 22,0 C 41,0% 450 ppm 21,3 C
28.05.2020 11:43:27 22,0 C 41,0% 450 ppm 20,5 C
28.05.2020 11:37:22 22,0 C 41,0% 450 ppm 20,3 C
28.05.2020 11:31:25 22,0 C 42,0% 450 ppm 20,2 C
28.05.2020 11:25:27 22,0 C 42,0% 450 ppm 19,3 C
28.05.2020 11:19:35 22,0 C 42,0% 450 ppm 19,4 C
28.05.2020 11:13:26 22,0 C 43,0% 450 ppm 18,9 C
28.05.2020 11:07:23 22,0 C 43,0% 450 ppm 19,8 C
28.05.2020 11:01:19 22,0 C 43,0% 450 ppm 18,9 C
28.05.2020 10:55:24 22,0 C 43,0% 450 ppm 17,9 C
28.05.2020 10:49:25 22,0 C 43,0% 450 ppm 16,3 C
28.05.2020 10:43:22 22,0 C 43,0% 450 ppm 16,5 C
28.05.2020 10:37:20 22,0 C 44,0% 450 ppm 16,8 C
28.05.2020 10:31:23 22,0 C 44,0% 450 ppm 17,8 C
28.05.2020 10:25:24 22,0 C 44,0% 450 ppm 17,8 C
28.05.2020 10:19:26 22,0 C 44,0% 450 ppm 15,7 C
28.05.2020 10:13:19 22,0 C 44,0% 450 ppm 15,1 C
28.05.2020 10:07:20 22,0 C 44,0% 450 ppm 16,0 C
28.05.2020 10:01:21 22,0 C 44,0% 450 ppm 16,7 C
28.05.2020 09:55:19 21,5 C 44,0% 450 ppm 16,1 C
28.05.2020 09:49:20 21,5 C 44,0% 450 ppm 14,7 C
28.05.2020 09:43:22 22,0 C 44,0% 450 ppm 14,7 C
28.05.2020 09:37:20 21,5 C 44,0% 450 ppm 15,1 C
28.05.2020 09:31:19 21,5 C 44,0% 450 ppm 14,5 C
28.05.2020 09:25:20 21,5 C 44,0% 450 ppm 14,3 C
28.05.2020 09:19:19 21,5 C 44,0% 450 ppm 14,9 C
28.05.2020 09:13:25 22,0 C 45,0% 450 ppm 15,4 C
28.05.2020 09:07:20 22,0 C 44,0% 450 ppm 15,7 C
28.05.2020 09:01:23 22,0 C 45,0% 450 ppm 15,0 C
28.05.2020 08:54:52 21,5 C 45,0% 450 ppm 13,1 C
28.05.2020 08:48:47 21,5 C 45,0% 450 ppm 13,0 C
28.05.2020 08:42:51 21,5 C 45,0% 450 ppm 12,0 C
28.05.2020 08:36:47 21,5 C 45,0% 450 ppm 11,9 C
28.05.2020 08:30:53 21,5 C 45,0% 450 ppm 12,1 C
28.05.2020 08:24:48 21,5 C 45,0% 450 ppm 12,1 C
28.05.2020 08:18:43 21,5 C 45,0% 450 ppm ---
28.05.2020 08:12:44 21,5 C 45,0% 500 ppm ---
28.05.2020 08:06:45 21,5 C 45,0% 500 ppm ---
28.05.2020 08:00:43 21,5 C 45,0% 500 ppm ---
28.05.2020 07:54:45 21,5 C 45,0% 500 ppm ---
28.05.2020 07:48:41 21,5 C 45,0% 500 ppm ---
28.05.2020 07:42:46 21,5 C 45,0% 550 ppm ---
28.05.2020 07:36:42 21,5 C 45,0% 550 ppm ---
28.05.2020 07:30:42 21,5 C 45,0% 550 ppm ---
28.05.2020 07:24:41 21,5 C 45,0% 550 ppm ---
28.05.2020 07:18:14 21,5 C 46,0% 550 ppm ---
28.05.2020 07:12:12 21,5 C 46,0% 600 ppm ---
28.05.2020 07:06:15 22,0 C 46,0% 600 ppm ---
28.05.2020 07:00:23 22,0 C 46,0% 600 ppm ---
28.05.2020 06:54:11 22,0 C 46,0% 600 ppm ---
28.05.2020 06:48:13 22,0 C 46,0% 600 ppm ---
28.05.2020 06:42:11 22,0 C 45,0% 650 ppm ---
28.05.2020 06:36:12 22,0 C 45,0% 650 ppm ---
28.05.2020 06:30:13 22,0 C 45,0% 650 ppm ---
28.05.2020 06:24:15 22,0 C 45,0% 650 ppm ---
28.05.2020 06:17:42 22,0 C 45,0% 650 ppm ---
28.05.2020 06:11:45 22,0 C 45,0% 650 ppm ---
28.05.2020 06:05:41 22,0 C 45,0% 650 ppm ---
28.05.2020 05:59:42 22,0 C 45,0% 650 ppm ---
28.05.2020 05:53:44 22,0 C 45,0% 650 ppm ---
28.05.2020 05:47:41 22,0 C 45,0% 650 ppm ---
28.05.2020 05:41:44 22,0 C 45,0% 700 ppm ---
28.05.2020 05:35:40 22,0 C 45,0% 700 ppm ---
28.05.2020 05:29:42 22,0 C 45,0% 700 ppm ---
28.05.2020 05:23:42 22,0 C 45,0% 750 ppm ---
28.05.2020 05:17:11 22,0 C 45,0% 700 ppm 12,0 C
28.05.2020 05:10:15 22,0 C 45,0% 700 ppm 12,2 C
28.05.2020 05:03:35 22,0 C 45,0% 700 ppm 12,3 C
28.05.2020 04:57:17 22,0 C 45,0% 700 ppm 12,3 C
28.05.2020 04:51:07 22,0 C 45,0% 700 ppm 12,4 C
28.05.2020 04:45:05 22,0 C 45,0% 700 ppm 12,6 C
28.05.2020 04:39:01 22,0 C 45,0% 700 ppm 12,4 C
28.05.2020 04:32:55 22,0 C 45,0% 700 ppm ---
28.05.2020 04:26:56 22,0 C 45,0% 700 ppm 12,4 C
28.05.2020 04:20:59 22,0 C 45,0% 700 ppm 12,4 C
28.05.2020 04:15:01 22,0 C 45,0% 700 ppm 12,5 C
28.05.2020 04:08:59 22,0 C 45,0% 700 ppm 12,8 C
28.05.2020 04:02:51 22,0 C 45,0% 700 ppm ---
28.05.2020 03:56:53 22,0 C 44,0% 700 ppm ---
28.05.2020 03:50:49 22,0 C 44,0% 700 ppm ---
28.05.2020 03:44:53 22,0 C 44,0% 700 ppm ---
28.05.2020 03:38:49 22,0 C 44,0% 750 ppm ---
28.05.2020 03:32:50 22,0 C 44,0% 750 ppm ---
28.05.2020 03:26:52 22,0 C 44,0% 750 ppm ---
28.05.2020 03:20:48 22,0 C 44,0% 750 ppm ---
28.05.2020 03:14:48 22,0 C 44,0% 750 ppm ---
28.05.2020 03:08:50 22,0 C 44,0% 750 ppm ---
28.05.2020 03:01:53 22,0 C 44,0% 750 ppm ---
28.05.2020 02:55:56 22,0 C 43,0% 750 ppm ---
28.05.2020 02:49:53 22,0 C 43,0% 750 ppm ---
28.05.2020 02:43:56 22,0 C 43,0% 800 ppm ---
28.05.2020 02:37:55 22,0 C 43,0% 800 ppm ---
28.05.2020 02:31:53 22,0 C 44,0% 800 ppm ---
28.05.2020 02:25:54 22,0 C 43,0% 800 ppm ---
28.05.2020 02:19:56 22,0 C 43,0% 850 ppm ---
28.05.2020 02:13:54 22,0 C 44,0% 850 ppm ---
28.05.2020 02:07:57 22,0 C 44,0% 850 ppm ---
28.05.2020 02:01:23 22,5 C 43,0% 850 ppm ---
28.05.2020 01:55:26 22,5 C 43,0% 850 ppm ---
28.05.2020 01:49:27 22,5 C 43,0% 900 ppm ---
28.05.2020 01:43:26 22,5 C 43,0% 900 ppm ---
28.05.2020 01:37:22 22,5 C 43,0% 900 ppm ---
28.05.2020 01:31:24 22,5 C 43,0% 900 ppm ---
28.05.2020 01:25:25 22,5 C 43,0% 950 ppm ---
28.05.2020 01:19:25 22,5 C 43,0% 950 ppm ---
28.05.2020 01:13:25 22,5 C 43,0% 950 ppm ---
28.05.2020 01:06:55 22,5 C 43,0% 950 ppm ---
28.05.2020 01:00:58 22,5 C 43,0% 950 ppm ---
28.05.2020 00:54:53 22,5 C 43,0% 950 ppm ---
28.05.2020 00:48:55 22,5 C 43,0% 950 ppm ---
28.05.2020 00:42:56 22,5 C 43,0% 950 ppm ---
28.05.2020 00:36:53 22,5 C 43,0% 950 ppm ---
28.05.2020 00:30:55 22,5 C 43,0% 950 ppm ---
28.05.2020 00:24:52 22,5 C 43,0% 950 ppm ---
28.05.2020 00:18:57 22,5 C 43,0% 1000 ppm ---
28.05.2020 00:12:53 22,5 C 43,0% 1000 ppm ---
28.05.2020 00:06:26 22,5 C 43,0% 950 ppm ---
28.05.2020 00:00:21 22,5 C 43,0% 950 ppm ---